Hutchinson, MN

3:23 AM CST on February 13, 2016 (GMT -0600)
Hutchinson Municipal-Butler

Weather History for KHCD - June, 2013

Change the Weather History Date:

Tuesday, June 18, 2013

  Actual Average Record
Temperature  
Mean Temperature 65 °F -  
Max Temperature 77 °F - - ()
Min Temperature 54 °F - - ()
Growing Degree Days 15 (Base 50)    
Moisture  
Dew Point 56 °F    
Average Humidity 71    
Maximum Humidity 92    
Minimum Humidity 50    
Precipitation  
Precipitation 0.06 in - - ()
Sea Level Pressure  
Sea Level Pressure 30.06 in    
Wind  
Wind Speed 8 mph (ENE)    
Max Wind Speed 14 mph    
Max Gust Speed 17 mph    
Visibility 10 miles    
Events Rain    
T = Trace of Precipitation, MM = Missing Value Source: NWS Daily Summary

Daily Weather History Graph

Daily Weather History Graph

Search for Another Location

Airport or City:

Trip Planner

Search our weather history database for the weather conditions in past years. The results will help you decide how hot, cold, wet, or windy it might be!

Date:

Astronomy

Jun. 18, 2013 Rise Set
Actual Time 5:30 AM CDT 9:06 PM CDT
Civil Twilight 4:53 AM CDT 9:43 PM CDT
Nautical Twilight 4:04 AM CDT 10:33 PM CDT
Astronomical Twilight 2:58 AM CDT 11:38 PM CDT
Moon 3:42 PM CDT (6/18) 1:51 AM CDT (6/18)
Length of Visible Light 16h 50m
Length of Day
15h 35m
Waxing Gibbous, 71% of the Moon is Illuminated
Jun 18
Waxing Gibbous
Jun 23
Full
Jun 29
Last Quarter
Jul 8
New
Jul 15
First Quarter

Hourly Weather History & Observations

Time (CDT) Temp. Dew Point Humidity Pressure Visibility Wind Dir Wind Speed Gust Speed Precip Events Conditions
12:14 AM 64.6 °F 56.5 °F 75% 30.02 in 10.0 mi ENE 11.5 mph - N/A   Scattered Clouds
12:32 AM 63.5 °F 55.4 °F 75% 30.02 in 10.0 mi NE 10.4 mph - N/A   Scattered Clouds
12:54 AM 63.0 °F 55.0 °F 75% 30.03 in 10.0 mi NE 10.4 mph - N/A   Mostly Cloudy
1:14 AM 62.1 °F 54.1 °F 75% 30.04 in 10.0 mi NE 11.5 mph - N/A   Mostly Cloudy
1:34 AM 61.0 °F 53.4 °F 76% 30.04 in 10.0 mi NNE 13.8 mph - N/A Rain Light Rain
1:54 AM 60.4 °F 53.6 °F 78% 30.05 in 10.0 mi NNE 10.4 mph - N/A   Light Drizzle
2:14 AM 59.9 °F 52.7 °F 77% 30.05 in 10.0 mi NNE 12.7 mph 17.3 mph N/A   Mostly Cloudy
2:34 AM 59.5 °F 52.3 °F 77% 30.05 in 10.0 mi North 11.5 mph 17.3 mph N/A   Overcast
2:54 AM 59.5 °F 52.3 °F 77% 30.05 in 10.0 mi NE 9.2 mph - 0.01 in Rain Heavy Rain
3:14 AM 57.2 °F 53.4 °F 87% 30.04 in 7.0 mi East 6.9 mph - 0.05 in Rain Light Rain
3:33 AM 57.2 °F 53.6 °F 88% 30.05 in 10.0 mi ESE 6.9 mph - 0.05 in Rain Light Rain
3:54 AM 57.2 °F 54.1 °F 89% 30.09 in 10.0 mi West 4.6 mph - 0.05 in Rain Light Rain
4:14 AM 57.2 °F 54.9 °F 92% 30.09 in 10.0 mi West 4.6 mph - N/A Rain Light Rain
4:33 AM 57.2 °F 55.0 °F 92% 30.08 in 10.0 mi Calm Calm - N/A   Scattered Clouds
4:54 AM 56.5 °F 54.1 °F 92% 30.07 in 10.0 mi NNE 8.1 mph - N/A   Scattered Clouds
5:11 AM 56.3 °F 53.8 °F 91% 30.07 in 10.0 mi NE 6.9 mph - N/A   Scattered Clouds
5:34 AM 55.4 °F 52.3 °F 89% 30.08 in 10.0 mi NNE 3.5 mph - N/A   Clear
5:53 AM 55.0 °F 51.8 °F 89% 30.07 in 10.0 mi NNE 9.2 mph - N/A   Clear
6:14 AM 54.5 °F 50.9 °F 88% 30.08 in 10.0 mi NE 9.2 mph - N/A   Clear
6:34 AM 54.5 °F 50.5 °F 86% 30.08 in 10.0 mi NE 9.2 mph - N/A   Clear
6:54 AM 55.0 °F 49.8 °F 83% 30.09 in 10.0 mi NE 11.5 mph - N/A   Clear
7:14 AM 55.4 °F 49.5 °F 80% 30.09 in 10.0 mi NNE 11.5 mph - N/A   Clear
7:34 AM 55.8 °F 49.5 °F 79% 30.09 in 10.0 mi NE 6.9 mph - N/A   Clear
7:54 AM 56.7 °F 49.5 °F 77% 30.09 in 10.0 mi NE 9.2 mph - N/A   Clear
8:14 AM 57.2 °F 49.6 °F 76% 30.09 in 10.0 mi ENE 5.8 mph - N/A   Clear
8:34 AM 58.5 °F 50.7 °F 75% 30.10 in 10.0 mi NNE 6.9 mph - N/A   Clear
8:54 AM 59.4 °F 51.4 °F 75% 30.10 in 10.0 mi North 3.5 mph - N/A   Clear
9:14 AM 60.4 °F 52.7 °F 76% 30.09 in 10.0 mi NE 8.1 mph - N/A   Clear
9:34 AM 61.5 °F 53.6 °F 75% 30.11 in 10.0 mi NNE 5.8 mph - N/A   Clear
9:54 AM 62.6 °F 54.5 °F 75% 30.11 in 10.0 mi NNE 5.8 mph - N/A   Clear
10:13 AM 63.9 °F 55.4 °F 74% 30.11 in 10.0 mi Calm Calm - N/A   Clear
10:34 AM 64.0 °F 55.8 °F 74% 30.11 in 10.0 mi East 4.6 mph - N/A   Clear
10:54 AM 66.2 °F 57.6 °F 74% 30.11 in 10.0 mi East 4.6 mph - N/A   Clear
11:14 AM 66.6 °F 58.1 °F 74% 30.11 in 10.0 mi Calm Calm - N/A   Clear
11:33 AM 67.6 °F 59.0 °F 74% 30.11 in 10.0 mi ESE 5.8 mph - N/A   Clear
11:53 AM 68.4 °F 59.0 °F 72% 30.10 in 10.0 mi Calm Calm - N/A   Clear
12:13 PM 68.9 °F 59.0 °F 71% 30.10 in 10.0 mi ENE 8.1 mph - N/A   Scattered Clouds
12:34 PM 70.0 °F 59.4 °F 69% 30.10 in 10.0 mi East 3.5 mph - N/A   Scattered Clouds
12:54 PM 70.7 °F 59.7 °F 68% 30.09 in 10.0 mi NE 5.8 mph - N/A   Scattered Clouds
1:14 PM 71.1 °F 59.5 °F 67% 30.09 in 10.0 mi East 6.9 mph - N/A   Scattered Clouds
1:33 PM 72.5 °F 59.5 °F 64% 30.08 in 10.0 mi North 5.8 mph - N/A   Scattered Clouds
1:54 PM 72.3 °F 58.1 °F 61% 30.08 in 10.0 mi East 8.1 mph - N/A   Clear
2:14 PM 73.0 °F 58.8 °F 61% 30.08 in 10.0 mi NE 6.9 mph - N/A   Scattered Clouds
2:34 PM 73.8 °F 59.0 °F 60% 30.07 in 10.0 mi ENE 8.1 mph - N/A   Scattered Clouds
2:53 PM 73.2 °F 57.7 °F 58% 30.07 in 10.0 mi East 5.8 mph - N/A   Scattered Clouds
3:14 PM 74.3 °F 57.7 °F 56% 30.07 in 10.0 mi ESE 3.5 mph - N/A   Scattered Clouds
3:34 PM 75.6 °F 58.3 °F 55% 30.06 in 10.0 mi East 6.9 mph - N/A   Scattered Clouds
3:54 PM 75.7 °F 58.1 °F 54% 30.05 in 10.0 mi East 6.9 mph 17.3 mph N/A   Mostly Cloudy
4:14 PM 75.2 °F 56.3 °F 52% 30.05 in 10.0 mi SE 3.5 mph - N/A   Scattered Clouds
4:34 PM 75.0 °F 56.8 °F 53% 30.04 in 10.0 mi East 4.6 mph - N/A   Mostly Cloudy
4:54 PM 76.1 °F 56.7 °F 51% 30.04 in 10.0 mi ESE 9.2 mph 16.1 mph N/A   Scattered Clouds
5:12 PM 76.1 °F 56.8 °F 51% 30.04 in 10.0 mi ESE 9.2 mph 16.1 mph N/A   Scattered Clouds
5:34 PM 76.3 °F 56.3 °F 50% 30.04 in 10.0 mi SE 6.9 mph - N/A   Scattered Clouds
5:54 PM 76.5 °F 58.1 °F 53% 30.03 in 10.0 mi ESE 8.1 mph - N/A   Scattered Clouds
6:13 PM 75.6 °F 55.9 °F 50% 30.04 in 10.0 mi SE 4.6 mph - N/A   Scattered Clouds
6:15 PM 75.7 °F 56.1 °F 50% 30.04 in 10.0 mi SSE 4.6 mph - N/A   Scattered Clouds
6:40 PM 75.6 °F 57.2 °F 53% 30.04 in 10.0 mi SE 4.6 mph - N/A   Scattered Clouds
7:05 PM 73.4 °F 57.2 °F 57% 30.04 in 10.0 mi Calm Calm - N/A   Clear
7:25 PM 73.4 °F 55.4 °F 53% 30.04 in 10.0 mi Calm Calm - N/A   Clear
7:45 PM 75.2 °F 57.2 °F 53% 30.04 in 10.0 mi East 3.5 mph - N/A   Scattered Clouds
8:05 PM 75.2 °F 57.2 °F 53% 30.03 in 10.0 mi ESE 5.8 mph - N/A   Scattered Clouds
8:25 PM 73.4 °F 57.2 °F 57% 30.03 in 10.0 mi East 3.5 mph - N/A   Clear
8:45 PM 73.4 °F 57.2 °F 57% 30.03 in 10.0 mi East 3.5 mph - N/A   Clear
9:05 PM 71.6 °F 59.0 °F 64% 30.03 in 10.0 mi East 4.6 mph - N/A   Clear
9:25 PM 69.8 °F 59.0 °F 68% 30.03 in 10.0 mi East 3.5 mph - N/A   Clear
9:48 PM 68.0 °F 60.6 °F 77% 30.04 in 10.0 mi East 3.5 mph - N/A   Clear
9:52 PM 68.0 °F 59.9 °F 75% 30.04 in 10.0 mi East 3.5 mph - N/A   Clear
10:14 PM 67.6 °F 60.4 °F 78% 30.04 in 10.0 mi Calm Calm - N/A   Clear
10:34 PM 67.3 °F 59.2 °F 75% 30.05 in 10.0 mi East 3.5 mph - N/A   Clear
10:54 PM 66.7 °F 59.5 °F 78% 30.05 in 10.0 mi East 3.5 mph - N/A   Clear
11:13 PM 65.7 °F 59.5 °F 81% 30.05 in 10.0 mi East 3.5 mph - N/A   Clear
11:34 PM 65.5 °F 59.2 °F 80% 30.04 in 10.0 mi ESE 4.6 mph - N/A   Clear
11:53 PM 65.1 °F 59.0 °F 81% 30.04 in 10.0 mi ESE 5.8 mph - N/A   Clear